Weather History for KLWC - July, 2013

Change the Weather History Date:

Saturday, July 20, 2013

  Actual Average Record
Temperature  
Mean Temperature 80 °F 79 °F  
Max Temperature 88 °F 90 °F 102 °F (2006)
Min Temperature 71 °F 68 °F 59 °F (2014)
Degree Days  
Heating Degree Days 0 0  
Month to date heating degree days 0 0  
Since 1 June heating degree days 13 8  
Since 1 July heating degree days 0 0  
Cooling Degree Days 15 14  
Month to date cooling degree days 293 261  
Year to date cooling degree days 732 655  
Since 1 June cooling degree days 605 536  
Growing Degree Days 29 (Base 50)    
Moisture  
Dew Point 70 °F    
Average Humidity 75    
Maximum Humidity 93    
Minimum Humidity 57    
Precipitation  
Precipitation 0.17 in 0.10 in 1.21 in (2010)
Month to date precipitation 0.39 3.02  
Year to date precipitation 16.05 22.37  
Sea Level Pressure  
Sea Level Pressure 29.89 in    
Wind  
Wind Speed 4 mph (ESE)    
Max Wind Speed 21 mph    
Max Gust Speed 28 mph    
Visibility 9 miles    
Events Rain , Thunderstorm    
T = Trace of Precipitation, MM = Missing Value Source: NWS Daily Summary

Daily Weather History Graph

Daily Weather History Graph

Search for Another Location

Airport or City:

Trip Planner

Search our weather history database for the weather conditions in past years. The results will help you decide how hot, cold, wet, or windy it might be!

Date:

Astronomy

Jul. 20, 2013 Rise Set
Actual Time 6:11 AM CDT 8:42 PM CDT
Civil Twilight 5:40 AM CDT 9:13 PM CDT
Nautical Twilight 5:02 AM CDT 9:51 PM CDT
Astronomical Twilight 4:19 AM CDT 10:33 PM CDT
Moon 6:46 PM CDT (7/20) 3:52 AM CDT (7/20)
Length of Visible Light 15h 32m
Length of Day
14h 30m
Waxing Gibbous, 94% of the Moon is Illuminated
Jul 20
Waxing Gibbous
Jul 22
Full
Jul 29
Last Quarter
Aug 6
New
Aug 14
First Quarter

Hourly Weather History & Observations

Time (CDT) Temp. Heat Index Dew Point Humidity Pressure Visibility Wind Dir Wind Speed Gust Speed Precip Events Conditions
12:52 AM 75.0 °F - 69.1 °F 82% 29.88 in 10.0 mi Calm Calm - N/A   Clear
1:52 AM 75.0 °F - 68.0 °F 79% 29.88 in 10.0 mi Calm Calm - N/A   Clear
2:52 AM 75.0 °F - 68.0 °F 79% 29.87 in 10.0 mi Calm Calm - N/A   Partly Cloudy
3:52 AM 72.0 °F - 68.0 °F 87% 29.87 in 10.0 mi Calm Calm - N/A   Clear
4:27 AM 73.4 °F - 69.8 °F 88% 29.90 in 10.0 mi Calm Calm - N/A Thunderstorm Mostly Cloudy
4:52 AM 75.0 °F - 68.0 °F 79% 29.89 in 10.0 mi Calm Calm - N/A Thunderstorm Thunderstorm
5:52 AM 75.0 °F - 70.0 °F 84% 29.90 in 10.0 mi Calm Calm - 0.05 in Thunderstorm Mostly Cloudy
6:52 AM 73.9 °F - 69.1 °F 85% 29.90 in 10.0 mi South 16.1 mph 21.9 mph 0.01 in Thunderstorm Thunderstorm
7:36 AM 75.2 °F - 69.8 °F 83% 29.94 in 9.0 mi SSW 16.1 mph - 0.01 in Rain Light Rain
7:52 AM 75.0 °F - 70.0 °F 84% 29.91 in 10.0 mi SSW 12.7 mph - 0.01 in Rain Light Rain
8:52 AM 73.9 °F - 70.0 °F 87% 29.89 in 10.0 mi ESE 6.9 mph - 0.01 in   Clear
9:52 AM 78.1 °F - 71.1 °F 79% 29.91 in 10.0 mi Calm Calm - N/A   Scattered Clouds
10:52 AM 80.1 °F 83.2 °F 70.0 °F 71% 29.92 in 10.0 mi Calm Calm - N/A   Scattered Clouds
11:52 AM 82.9 °F 87.0 °F 70.0 °F 65% 29.91 in 10.0 mi SE 3.5 mph - 0.00 in   Clear
12:52 PM 84.9 °F 89.4 °F 70.0 °F 61% 29.89 in 10.0 mi SE 6.9 mph - N/A   Clear
1:52 PM 86.0 °F 90.7 °F 70.0 °F 59% 29.89 in 10.0 mi SSE 4.6 mph - N/A   Scattered Clouds
2:52 PM 86.0 °F 92.2 °F 72.0 °F 63% 29.90 in 10.0 mi NE 3.5 mph - N/A   Overcast
3:15 PM 80.6 °F 83.2 °F 68.0 °F 65% 29.93 in 10.0 mi NNE 15.0 mph 19.6 mph 0.00 in Rain , Thunderstorm Light Thunderstorms and Rain
3:39 PM 75.2 °F - 69.8 °F 83% 29.90 in 10.0 mi NNE 12.7 mph 17.3 mph 0.02 in Rain Light Rain
3:52 PM 77.0 °F - 70.0 °F 79% 29.88 in 10.0 mi NE 8.1 mph - 0.02 in   Overcast
4:52 PM 77.0 °F - 72.0 °F 84% 29.88 in 10.0 mi NNE 8.1 mph - N/A   Mostly Cloudy
5:45 PM 77.0 °F - 71.6 °F 83% 29.91 in 7.0 mi Calm Calm - 0.01 in Rain , Thunderstorm Light Rain
5:52 PM 77.0 °F - 72.0 °F 84% 29.88 in 8.0 mi Calm Calm - 0.01 in Rain , Thunderstorm Light Rain
6:07 PM 77.0 °F - 73.4 °F 89% 29.89 in 10.0 mi South 8.1 mph - 0.01 in Rain Light Rain
6:52 PM 75.9 °F - 72.0 °F 87% 29.88 in 8.0 mi SW 3.5 mph - 0.04 in Rain Light Rain
7:52 PM 75.0 °F - 72.0 °F 90% 29.85 in 10.0 mi Calm Calm - 0.01 in   Partly Cloudy
8:52 PM 73.9 °F - 71.1 °F 91% 29.85 in 9.0 mi ENE 4.6 mph - 0.01 in   Clear
9:52 PM 73.9 °F - 71.1 °F 91% 29.90 in 9.0 mi Calm Calm - N/A   Partly Cloudy
10:52 PM 72.0 °F - 70.0 °F 93% 29.92 in 6.0 mi West 4.6 mph - N/A   Clear
11:52 PM 72.0 °F - 69.1 °F 91% 29.92 in 3.0 mi NNW 3.5 mph - N/A   Clear